GFSNE_700_spd_327.txt.gz
Wind_Speed
5 2 2 3 5 8 10 12 14 16 19 21 24 26 28 30 32 33 34 35 36 37 35 33 32 30 28 27 26 25 26 26 26 26 25 24 22 20
6 3 2 4 6 8 11 13 15 17 19 22 24 25 27 30 32 33 34 35 36 35 33 32 31 29 27 26 25 25 26 25 26 25 24 23 21 20
6 4 4 4 6 8 11 13 15 17 20 22 23 26 28 30 31 32 33 35 35 34 32 31 30 28 26 26 25 25 25 25 25 24 23 22 21 19
8 6 5 5 6 9 11 13 15 18 20 22 25 26 28 29 30 32 32 34 33 32 31 30 28 27 26 25 25 25 24 24 24 24 24 22 21 21
9 7 6 5 7 9 12 14 16 18 20 22 24 25 27 29 31 31 33 33 31 30 29 28 27 26 26 25 25 25 24 24 24 23 22 22 22 23
10 8 7 7 7 9 12 14 16 18 20 22 23 25 26 27 29 30 31 33 31 29 27 26 26 25 25 25 25 24 24 24 24 23 23 23 23 24
11 10 8 8 8 10 12 14 16 18 19 21 22 23 25 26 27 29 31 31 29 27 25 25 24 23 23 23 23 23 24 24 24 24 25 25 25 26
13 11 10 9 9 11 13 14 16 17 19 20 21 22 23 25 26 27 29 29 26 25 24 23 23 23 22 23 24 24 25 25 25 25 25 25 26 26
14 12 11 10 10 12 12 14 15 16 18 19 21 21 22 23 25 27 29 28 26 24 23 22 22 22 22 23 24 25 25 24 25 26 26 25 26 25
15 14 13 12 11 12 13 13 14 15 17 18 19 20 22 22 24 26 28 28 26 24 24 23 22 22 22 22 24 24 23 24 24 25 25 26 26 25
17 15 15 14 13 13 13 14 14 15 16 17 18 19 20 21 23 24 26 27 26 24 23 22 22 22 22 21 22 23 23 23 24 24 24 25 25 25
18 17 17 15 14 14 14 14 14 15 16 16 17 18 18 19 21 22 24 25 25 23 23 22 21 21 21 21 21 22 22 22 22 23 23 23 23 23
20 19 18 17 16 15 15 14 15 15 15 16 17 17 17 18 19 21 22 24 24 23 22 21 20 19 19 19 19 19 21 22 22 22 23 23 22 21
21 21 19 19 17 16 15 15 15 15 15 15 16 16 15 16 18 19 21 22 23 23 22 21 20 18 17 17 17 20 20 21 21 22 22 23 22 22
23 22 21 20 18 17 17 16 16 15 15 15 16 16 15 16 17 19 20 21 23 22 22 20 19 18 16 16 17 17 18 19 20 21 21 21 21 20
23 23 23 23 20 19 18 17 17 16 15 15 15 15 15 15 16 17 19 20 22 22 21 20 19 18 17 17 18 18 19 19 20 19 20 20 20 21
27 27 26 23 21 21 20 18 18 17 16 16 16 16 15 14 14 16 17 18 19 20 21 20 19 18 18 18 18 18 19 19 19 18 19 19 20 21
30 27 26 24 22 23 22 20 20 19 18 17 16 16 15 13 13 15 16 17 17 19 20 20 20 19 18 18 18 19 19 19 18 18 17 18 20 21
32 28 26 24 24 25 24 23 22 21 19 18 17 17 16 14 14 14 15 16 16 17 18 19 19 19 19 19 20 18 18 19 18 18 18 17 18 20
31 27 25 24 25 26 26 26 25 23 21 20 19 18 17 15 15 14 14 16 16 16 18 18 19 19 19 18 18 19 19 18 18 18 18 18 17 18
31 28 26 26 28 28 28 28 28 26 23 22 21 20 19 17 17 16 15 16 17 16 17 18 19 19 19 19 19 19 20 20 19 18 18 18 18 18
31 30 28 28 30 31 31 30 30 28 25 24 23 22 21 19 19 17 17 17 17 17 18 18 19 19 19 19 19 19 19 20 20 20 19 19 19 18
33 32 32 32 33 34 35 34 32 30 28 27 25 24 23 21 21 19 19 19 19 18 19 19 20 19 19 19 19 19 19 18 18 19 21 19 19 20

GFSNE_700_spd_330.txt.gz
Wind_Speed
9 7 6 3 3 4 6 8 10 14 16 17 20 21 23 25 27 28 29 30 30 30 29 29 29 28 27 27 26 26 25 25 24 23 23 22 20 19
10 8 6 4 4 4 6 9 11 13 15 17 19 21 23 24 26 28 28 28 31 31 30 28 28 28 27 26 26 26 25 24 24 23 22 21 20 20
10 9 7 6 5 6 7 9 11 14 15 17 18 20 22 24 26 27 28 31 30 30 28 28 28 28 26 25 25 25 24 24 24 24 23 23 22 22
12 10 9 8 6 7 8 10 12 14 16 17 19 20 22 23 24 25 27 29 29 28 27 27 27 26 25 25 25 25 25 24 24 24 23 24 24 25
13 11 10 9 8 8 9 11 13 15 15 17 18 20 21 23 24 24 26 27 28 26 26 25 26 26 25 25 25 24 23 24 24 23 24 24 24 24
14 13 11 10 9 9 10 12 14 15 15 17 18 19 21 22 23 24 26 26 27 26 25 25 25 24 24 25 24 23 23 23 23 23 23 24 24 24
16 14 13 12 11 11 11 12 14 15 16 17 18 19 20 21 21 22 24 26 26 26 26 26 26 26 24 22 22 22 23 23 23 23 23 24 24 24
17 16 15 14 13 12 12 13 15 16 16 17 18 18 18 19 19 21 23 25 26 25 24 24 23 22 22 22 21 22 23 23 23 23 22 23 22 22
18 18 17 15 14 14 13 14 15 16 16 17 17 17 17 18 18 19 21 23 24 24 23 22 21 20 20 19 20 21 22 22 22 22 22 22 21 21
20 19 18 17 15 15 14 14 15 16 15 16 16 16 16 16 17 18 20 22 23 23 23 21 21 20 19 18 19 20 21 22 22 22 22 22 22 22
21 19 19 18 16 15 14 14 15 15 16 16 17 17 15 16 16 17 19 21 22 23 22 22 20 19 18 18 18 19 20 21 22 23 22 22 22 22
22 21 20 20 18 16 15 15 15 15 16 15 15 15 15 15 15 16 18 19 21 22 22 21 21 20 18 17 18 19 20 21 21 21 22 22 22 21
23 22 21 21 19 17 17 17 16 16 16 16 16 16 15 14 15 15 16 18 19 20 21 21 20 20 19 19 19 19 19 20 21 21 21 21 21 21
24 23 22 22 21 19 18 18 17 17 17 16 16 16 15 14 14 15 16 17 18 19 20 20 20 19 19 18 19 19 19 19 19 19 21 22 22 23
26 24 23 23 22 20 20 20 18 18 17 17 17 17 16 14 14 14 14 15 16 17 19 20 20 20 19 18 18 18 18 18 18 18 18 20 21 22
26 25 23 23 23 22 21 22 20 19 19 18 18 17 16 15 14 14 14 15 15 16 17 19 19 20 19 19 20 20 19 18 19 19 18 18 20 21
27 27 26 25 24 23 23 23 22 20 20 20 19 18 18 16 15 14 14 15 16 16 17 18 19 19 20 19 20 20 20 19 19 19 18 19 18 19
32 31 28 26 26 25 25 25 24 22 22 21 21 20 19 17 16 16 15 15 16 17 17 18 19 19 19 18 19 20 21 20 19 19 19 18 18 19
36 33 30 28 27 27 27 27 26 25 25 22 23 22 21 20 18 18 17 16 16 16 17 18 18 20 20 20 21 19 20 20 19 19 20 19 18 18
36 33 31 29 28 28 28 28 28 28 27 25 25 24 23 22 20 19 19 18 17 17 17 18 18 19 20 19 19 20 20 20 20 20 20 20 19 19
35 33 31 29 29 29 30 30 31 30 29 28 26 26 25 24 22 21 20 20 20 19 18 19 20 20 20 20 19 20 20 20 20 21 21 20 20 20
32 33 32 31 30 31 32 32 34 33 32 30 28 28 27 27 24 24 22 21 21 21 21 21 21 22 22 22 21 21 20 21 21 22 23 21 21 20
29 31 33 33 33 33 35 36 36 35 34 32 31 30 30 29 27 26 25 24 23 23 23 22 23 24 24 24 22 22 22 21 22 22 24 24 23 22

GFSNE_700_spd_336.txt.gz
Wind_Speed
10 10 9 8 7 7 7 8 10 14 14 17 17 20 19 21 22 22 24 24 25 26 26 27 27 27 28 29 29 30 31 31 31 30 29 29 28 27
11 11 10 10 8 8 8 8 10 13 15 16 18 19 21 19 21 21 22 24 25 25 26 26 26 27 28 28 29 30 30 31 31 30 29 28 28 27
12 12 12 11 10 9 8 9 11 12 14 16 17 17 19 20 20 20 19 20 23 24 24 25 26 27 28 28 28 29 30 30 29 28 28 28 28 28
12 14 13 12 11 10 10 10 12 13 13 15 15 17 17 18 19 21 23 20 23 24 24 25 26 26 26 26 27 27 29 29 28 28 27 27 27 28
14 15 14 14 12 11 11 11 12 13 14 15 17 17 17 17 17 18 19 21 20 23 24 24 25 26 26 26 25 26 27 28 28 27 27 27 27 27
15 16 15 14 13 12 12 12 13 13 15 15 15 16 16 17 19 19 18 19 21 19 19 20 22 23 23 24 24 25 26 27 27 26 26 26 26 26
16 17 15 16 15 14 13 13 14 14 15 15 16 16 16 16 16 18 19 19 20 22 22 21 21 22 22 22 23 25 25 26 26 26 25 26 26 26
17 15 17 16 16 15 15 15 15 15 15 15 16 16 17 16 17 17 17 18 17 20 21 24 25 25 25 26 26 24 23 24 25 25 25 25 25 26
17 18 18 17 17 17 17 16 16 15 15 15 15 16 16 16 16 16 17 17 18 18 19 20 21 23 23 23 22 22 22 23 23 24 24 25 25 26
18 20 19 19 19 18 18 17 17 16 16 15 15 16 16 16 16 16 17 17 17 18 18 18 20 20 20 20 20 21 21 22 23 23 24 25 25 25
20 21 19 20 20 20 19 19 17 17 17 16 16 16 16 16 16 16 16 17 17 17 18 18 19 20 20 20 19 20 20 21 22 22 23 24 26 27
21 22 21 20 21 21 21 20 18 18 18 17 16 16 16 16 16 16 16 16 17 17 17 17 18 18 19 20 20 20 19 20 21 21 21 22 23 25
21 22 22 21 22 22 22 21 19 19 18 18 17 17 17 17 17 16 16 17 17 17 17 17 17 18 18 19 20 20 21 21 21 21 20 20 20 21
21 23 23 23 23 24 23 21 22 20 20 19 18 18 18 17 16 16 17 17 17 17 17 17 17 18 19 20 20 20 20 20 21 21 22 21 21 20
22 23 23 25 26 24 23 23 23 22 21 20 20 20 19 19 18 17 17 18 18 17 18 18 17 18 19 20 20 21 20 21 21 21 21 20 20 20
22 23 22 25 27 25 24 24 24 23 22 21 21 21 20 20 20 18 18 19 19 19 18 18 19 19 19 20 21 21 21 21 20 21 21 21 21 20
26 27 24 23 26 26 25 26 26 25 24 23 23 22 22 22 22 21 19 19 19 20 20 20 21 21 20 21 21 22 20 21 21 21 21 21 22 21
30 30 27 26 29 29 29 28 27 26 25 26 25 24 24 24 23 23 21 20 20 21 21 21 21 21 21 20 23 22 23 22 22 22 21 21 20 22
33 31 29 27 27 31 31 30 28 27 29 28 26 26 26 26 25 25 24 23 21 22 22 22 23 23 23 21 22 22 23 23 23 22 23 22 21 21
31 31 30 27 25 26 30 31 31 30 30 30 29 29 29 28 27 26 26 26 25 23 23 23 23 25 25 24 23 22 24 24 24 23 23 23 23 21
29 30 30 29 27 26 28 30 31 32 32 32 31 32 31 30 28 28 29 29 28 27 24 24 25 27 25 25 24 23 24 26 26 26 25 25 24 23
28 29 28 28 29 29 28 30 32 33 34 34 34 34 32 32 32 31 31 33 30 29 27 26 28 28 28 27 25 24 25 25 25 26 27 28 27 26
30 30 30 30 30 31 32 33 33 35 36 37 37 36 35 35 34 34 34 34 33 32 30 29 29 30 30 30 30 27 29 28 28 27 26 27 28 27

GFSNE_700_spd_339.txt.gz
Wind_Speed
10 7 10 9 8 9 7 7 8 9 11 13 15 16 17 17 18 19 20 21 21 22 22 23 24 26 26 26 27 28 29 30 30 29 28 28 29 28
10 8 10 10 10 9 8 9 9 10 12 14 16 17 17 16 17 18 19 19 20 21 21 23 24 24 25 26 26 27 28 30 30 29 28 28 28 28
10 10 11 11 10 10 9 10 9 10 11 14 16 17 16 17 16 16 18 19 19 20 21 22 23 24 25 25 25 26 27 29 29 29 28 28 28 28
11 12 11 12 11 11 12 11 9 10 11 13 15 17 17 16 15 15 16 17 18 19 19 21 22 23 24 24 25 25 26 27 28 28 28 28 28 28
12 12 12 13 12 13 13 11 10 11 11 13 14 15 16 16 16 15 12 14 16 17 19 20 21 23 23 24 24 24 25 26 26 27 28 28 28 28
13 13 13 13 14 14 14 13 13 12 12 12 14 15 16 15 14 14 15 15 15 16 18 18 19 20 22 23 23 22 23 24 25 26 27 27 27 28
13 13 13 14 16 15 15 14 14 14 13 13 15 15 15 15 15 14 14 15 16 15 15 16 17 18 19 20 20 21 22 23 24 24 25 26 27 27
13 14 15 16 16 16 16 15 14 15 15 14 15 14 14 14 14 14 14 15 16 17 17 17 16 17 18 19 20 21 22 22 22 22 23 24 25 27
14 15 16 16 17 17 18 15 15 16 15 15 15 15 14 14 14 13 13 13 14 15 17 18 18 18 18 20 21 21 21 21 21 21 21 22 23 25
15 16 16 17 18 19 19 17 16 16 16 16 16 16 15 14 14 14 14 14 14 14 15 15 17 18 20 20 21 21 19 20 20 20 21 21 21 22
17 17 17 18 19 20 19 18 17 17 16 17 17 17 16 15 14 14 14 14 14 14 15 15 14 15 16 17 17 18 19 19 21 21 21 21 21 21
17 16 17 19 20 20 20 19 17 18 18 17 17 17 17 16 15 15 15 15 15 14 15 14 15 15 15 16 16 16 18 18 19 20 21 21 21 21
17 16 17 19 21 21 21 19 18 20 19 18 18 18 18 17 16 16 16 15 15 16 15 15 15 15 16 16 17 17 18 18 18 19 20 20 20 20
17 17 17 19 21 23 22 21 20 20 19 20 19 19 20 19 18 17 17 17 16 16 17 16 16 16 16 16 15 17 17 18 18 19 19 20 21 20
18 18 18 18 21 24 23 22 22 21 20 19 20 21 21 20 19 18 18 18 17 17 17 17 18 17 17 17 16 17 17 18 19 19 19 20 19 20
19 20 19 20 21 22 24 23 23 22 21 21 22 23 23 22 21 21 19 19 18 19 19 19 19 20 19 19 18 18 19 18 18 19 19 20 21 19
25 25 25 22 20 22 23 24 25 25 23 23 24 24 24 24 23 23 22 21 20 21 21 21 20 20 21 20 20 20 19 20 20 19 20 20 21 21
28 27 27 25 22 22 23 25 27 28 26 27 27 27 26 25 25 26 24 23 23 21 22 23 23 23 23 22 23 20 21 22 21 20 20 20 19 24
31 29 29 26 24 22 23 24 25 28 31 31 30 30 29 28 28 27 27 27 24 24 25 26 24 25 25 23 24 25 21 23 23 23 23 23 20 21
30 28 27 27 26 25 24 24 24 26 30 33 33 33 33 32 31 30 29 29 29 27 28 27 27 27 29 27 26 22 25 24 24 23 23 25 24 22
27 26 25 25 26 26 26 26 27 27 28 32 35 35 34 35 35 34 33 33 32 31 30 27 27 32 32 33 28 24 26 27 25 24 25 26 25 23
27 25 25 25 26 27 27 29 30 30 30 32 34 38 39 39 39 37 36 36 35 35 34 30 30 32 35 35 31 28 29 27 29 26 28 29 29 27
30 28 27 27 26 28 29 29 32 33 32 34 35 36 40 43 43 42 39 38 37 37 37 34 33 35 35 36 36 33 32 30 31 31 26 31 32 31

GFSNE_700_spd_345.txt.gz
Wind_Speed
10 10 11 12 9 8 7 7 7 5 6 9 10 11 12 14 14 15 15 14 15 15 15 16 17 18 18 19 20 23 25 27 27 28 28 29 30 29
11 10 11 13 12 10 9 10 8 8 8 9 11 12 13 14 14 15 15 14 14 14 15 15 16 17 17 18 19 20 23 25 26 28 28 29 30 29
11 9 13 13 13 12 12 11 10 9 10 10 11 12 13 15 15 15 15 14 14 14 14 15 15 16 16 17 17 18 19 23 25 27 28 28 29 29
11 11 12 13 13 13 13 12 12 11 11 11 11 13 14 14 15 15 15 15 14 13 13 14 14 15 16 17 16 16 17 19 22 25 26 27 27 28
12 12 12 14 14 14 14 14 14 13 13 12 12 13 13 14 14 15 15 15 14 14 14 14 14 14 15 16 16 16 16 18 20 22 24 25 26 27
13 14 14 15 15 16 16 15 15 14 14 13 14 14 14 14 14 14 14 15 15 14 15 15 15 16 15 16 16 17 17 17 18 19 22 23 24 24
15 15 15 16 16 16 17 16 16 15 15 15 15 15 15 15 14 14 15 15 15 14 14 16 15 16 16 16 16 17 17 17 17 18 19 21 22 23
16 16 17 18 17 17 18 17 17 16 17 17 17 17 17 16 15 15 15 15 14 15 14 15 16 17 16 16 16 17 18 18 17 17 17 18 20 22
17 18 19 18 18 17 18 18 18 18 19 19 18 19 17 18 16 16 16 16 16 15 14 14 16 16 16 16 17 17 18 18 17 18 17 17 19 21
18 19 20 20 19 19 19 19 19 19 19 20 20 20 20 19 18 17 17 17 17 17 17 14 18 17 17 17 17 17 17 19 19 18 18 18 18 19
19 20 20 20 20 20 20 19 19 20 20 21 21 21 21 20 19 19 19 19 19 18 19 18 18 20 19 19 18 19 18 18 18 19 19 19 18 18
22 22 21 21 22 21 20 21 19 21 21 23 23 23 22 21 20 20 20 20 21 21 20 21 20 22 21 20 21 21 19 19 19 19 20 20 20 19
24 23 22 22 23 23 23 21 20 24 24 25 23 23 23 22 22 23 22 22 22 23 23 23 21 23 24 23 21 24 21 22 21 21 21 21 21 21
27 25 24 25 26 26 26 23 22 25 25 25 24 23 24 24 26 25 23 24 25 24 25 25 25 25 25 24 25 26 27 24 24 23 22 23 23 23
30 28 29 29 29 30 27 25 23 24 24 25 24 23 26 29 28 25 26 27 28 27 27 28 28 28 28 26 27 25 28 29 27 26 26 24 25 26
32 32 32 32 31 30 30 27 25 23 24 24 25 27 30 30 28 28 29 29 30 28 29 30 31 31 30 30 30 26 27 30 29 30 30 28 25 27
36 35 35 34 33 32 30 29 27 27 26 25 26 28 30 32 30 32 32 33 32 30 30 32 34 35 33 34 33 29 29 30 30 33 34 30 28 27
41 40 37 38 37 35 33 31 30 29 28 28 30 31 32 33 33 34 36 36 34 33 33 32 37 40 39 34 34 32 32 33 32 34 36 37 30 28
43 40 39 40 38 37 36 33 31 31 32 33 34 33 34 34 35 35 37 39 37 36 35 36 39 44 46 43 33 35 40 36 33 34 38 40 38 31
39 37 38 39 37 37 35 33 32 34 36 36 37 37 38 39 38 38 38 39 40 40 41 39 41 43 46 46 48 37 37 37 38 38 39 41 42 38
35 37 39 39 37 36 35 35 35 37 38 40 41 41 41 42 41 41 42 41 41 42 44 41 40 44 48 52 54 47 38 39 40 42 42 44 44 42
30 42 44 41 41 37 35 37 39 40 41 43 43 42 42 43 43 42 43 43 43 44 45 42 41 44 48 51 53 52 48 42 41 43 44 46 47 48
30 28 27 35 41 34 38 41 43 44 45 45 45 43 41 42 42 43 43 45 45 47 47 46 44 45 47 48 50 51 51 47 45 46 44 44 47 49

GFSNE_700_spd_351.txt.gz
Wind_Speed
20 19 17 16 14 13 14 14 14 13 14 12 10 9 10 11 11 12 12 12 12 11 12 12 11 12 12 13 14 14 15 16 17 19 21 22 24 27
22 21 18 17 16 15 15 16 16 15 15 15 12 11 11 12 12 12 12 12 12 12 12 12 12 12 11 12 13 14 15 16 17 18 19 20 21 23
23 22 20 19 17 16 16 17 18 17 17 16 15 14 13 13 13 13 13 13 12 13 13 13 13 13 12 12 13 15 16 17 17 18 18 19 20 21
23 23 21 20 17 16 17 17 19 19 18 17 17 17 16 15 15 15 14 14 13 14 14 14 14 14 14 14 14 15 17 18 18 18 18 19 19 20
24 23 22 21 19 17 18 18 20 19 19 20 20 19 18 17 17 16 16 15 14 14 15 15 15 15 14 14 14 15 16 17 18 18 18 19 19 19
26 25 24 22 20 19 20 19 21 20 21 21 21 21 21 20 19 18 17 17 16 16 16 17 17 17 17 15 15 16 17 18 18 18 19 18 19 18
27 26 24 23 22 22 21 21 22 22 22 22 22 23 23 23 22 20 19 18 18 18 17 18 18 18 19 17 16 16 17 18 18 18 19 19 18 19
29 27 26 25 25 23 22 23 23 23 22 23 23 23 24 25 25 23 21 21 19 20 19 20 20 20 20 19 18 17 17 18 19 19 18 19 19 18
31 29 28 27 26 25 24 25 24 24 23 24 23 24 26 27 26 24 24 23 22 21 21 20 22 21 22 20 22 19 19 19 20 21 21 19 19 19
33 31 30 29 28 27 27 26 25 25 25 25 25 26 27 28 27 28 26 26 25 24 24 21 22 24 24 22 23 21 21 21 21 21 22 23 21 20
34 32 30 29 28 28 27 26 27 26 26 25 26 27 28 28 29 29 28 28 28 26 26 25 22 25 26 25 25 24 23 23 23 22 23 24 25 23
35 32 31 28 29 29 28 28 28 27 27 28 29 29 29 29 30 29 31 30 31 30 27 28 26 26 27 27 27 27 25 26 24 24 24 25 26 27
37 34 32 31 31 30 30 30 28 30 31 31 31 31 29 28 29 31 32 33 33 33 30 30 29 29 30 30 29 30 30 28 27 26 27 27 27 27
38 36 36 35 35 35 35 34 33 34 35 34 32 32 29 29 30 33 36 35 34 34 34 34 32 31 33 33 32 31 33 31 30 29 29 31 31 29
39 39 39 40 39 39 39 39 38 37 36 36 33 31 30 31 34 34 35 36 35 36 37 37 36 35 36 35 35 34 33 32 33 31 31 32 34 34
43 44 45 44 44 42 44 43 42 39 38 37 35 34 35 34 35 35 35 37 37 36 38 39 40 41 39 38 39 36 36 36 34 35 36 35 35 36
46 47 48 48 47 47 47 46 43 41 40 39 37 37 38 39 38 39 39 40 40 38 38 40 41 44 45 43 42 39 37 38 38 39 43 41 38 36
50 52 53 52 50 49 49 51 49 45 42 43 42 41 40 42 41 43 45 45 44 43 41 41 42 46 49 48 44 42 40 40 39 41 43 46 41 38
55 54 52 60 54 51 49 48 46 53 46 45 44 43 44 45 45 47 48 48 48 47 46 45 46 47 50 52 46 44 45 44 44 42 44 47 47 40
55 55 53 53 50 50 49 43 40 48 49 41 42 44 46 48 49 50 51 52 52 52 52 50 50 48 49 51 55 48 43 42 43 47 46 47 46 45
46 44 41 43 47 42 42 41 41 40 37 42 45 47 49 51 51 52 55 56 57 58 58 57 52 49 52 53 54 46 46 45 47 49 48 47 47 49
37 40 39 41 42 39 36 34 33 37 38 41 45 48 50 51 52 53 57 59 61 60 61 60 59 57 58 54 48 44 47 49 49 47 45 46 48 49
16 17 18 21 22 24 27 29 32 31 35 41 46 49 51 53 56 56 57 58 59 57 57 57 54 53 52 50 45 44 46 45 43 44 44 40 39 42

GFSNE_700_spd_354.txt.gz
Wind_Speed
24 22 21 21 22 21 19 18 17 18 17 18 16 15 14 14 13 13 13 13 13 13 13 13 12 12 13 13 13 14 14 14 15 16 17 17 18 19
25 25 23 23 23 23 21 20 19 20 20 21 19 17 16 16 15 15 15 15 14 14 15 15 14 13 13 14 14 14 15 14 15 15 16 17 16 17
27 26 26 25 25 25 24 22 20 21 22 25 22 19 18 18 17 17 17 17 16 16 16 17 16 14 14 15 16 15 15 15 15 15 15 16 16 16
28 27 26 26 26 26 24 23 23 23 24 25 23 22 21 20 19 20 19 20 18 17 17 18 18 16 15 15 17 17 17 16 15 15 15 15 16 16
30 29 27 28 28 27 25 24 25 25 25 26 26 25 23 23 22 22 22 22 21 19 19 19 20 19 17 17 17 18 18 18 17 16 16 16 16 16
33 31 30 29 28 28 27 27 27 27 26 27 28 25 25 25 25 24 24 24 23 22 21 20 20 20 20 19 18 19 19 19 19 18 17 16 16 16
36 33 32 31 29 29 29 29 28 27 26 26 28 27 26 26 26 27 26 27 25 24 24 22 22 21 22 21 19 20 20 20 20 20 19 18 18 18
39 35 34 33 32 31 31 31 30 29 27 27 28 29 27 28 28 29 28 28 28 27 27 25 25 23 24 23 21 21 21 22 21 21 21 21 19 20
42 37 37 36 35 34 32 33 31 32 29 29 28 29 29 30 31 30 29 30 30 31 29 27 27 26 26 25 24 24 23 23 23 23 23 23 23 21
46 40 40 39 37 36 34 35 33 33 31 31 30 30 32 33 31 31 32 33 33 32 30 31 28 27 29 28 25 27 25 25 26 25 25 24 24 25
47 44 43 41 38 37 37 36 35 34 32 33 32 32 33 33 33 33 32 35 34 32 33 34 29 30 31 30 30 28 28 27 28 28 26 26 26 27
48 45 43 43 40 38 38 38 36 34 33 34 34 34 34 36 35 33 33 34 35 34 33 35 33 33 33 31 33 31 31 30 30 30 29 29 29 30
49 46 44 43 41 38 39 38 35 35 35 37 37 38 38 37 36 34 34 35 36 36 35 37 35 35 35 35 34 34 34 33 33 32 31 31 32 34
49 46 46 44 43 41 42 40 39 39 40 40 41 41 40 38 38 35 36 38 38 37 38 36 36 37 37 37 37 35 36 36 36 35 34 33 33 35
49 49 50 47 45 46 44 44 44 46 46 43 42 43 42 41 41 40 40 40 40 38 39 39 38 40 39 39 39 38 39 37 37 37 38 37 36 37
52 53 53 50 50 49 47 48 48 49 51 47 45 46 46 46 45 43 42 43 43 41 41 41 41 42 43 41 42 38 39 40 38 39 42 42 40 40
52 55 53 53 52 51 51 51 51 52 53 50 48 50 51 49 46 47 46 46 47 45 45 45 45 46 48 47 47 42 41 41 40 41 46 46 42 41
53 54 53 53 52 51 52 52 52 52 56 53 53 54 56 59 46 49 49 48 49 48 49 49 50 51 52 54 50 47 46 46 44 44 45 48 49 41
57 56 56 55 55 55 56 55 56 57 59 64 69 64 65 67 51 49 51 50 50 51 52 53 53 56 57 59 53 51 51 50 51 49 48 49 51 49
53 55 55 56 55 53 59 56 54 60 60 59 69 74 61 56 60 56 49 47 52 53 54 57 58 58 58 57 60 62 62 58 53 57 57 53 52 50
43 48 53 56 53 51 52 51 61 61 59 56 56 54 49 47 47 45 49 46 51 53 56 58 59 59 59 61 63 61 64 66 64 62 57 55 51 46
37 40 41 44 48 54 53 52 51 48 47 46 43 42 42 44 46 45 47 48 52 55 57 59 60 60 59 59 59 55 51 49 48 46 43 39 39 42
9 11 15 19 21 23 26 29 34 34 32 29 27 27 31 36 38 41 43 44 43 44 46 45 43 42 42 42 43 43 40 38 38 40 40 37 35 36

GFSNE_700_spd_357.txt.gz
Wind_Speed
30 27 27 25 24 23 23 23 20 21 21 20 19 18 18 17 17 17 16 16 16 16 16 15 15 15 16 16 16 16 16 16 15 17 18 16 15 16
28 29 28 27 27 25 25 24 23 23 23 22 19 18 20 20 19 19 18 17 17 18 18 17 16 17 17 17 18 17 17 17 16 16 18 18 17 16
32 32 30 30 29 26 26 26 26 25 25 26 29 20 21 23 21 22 21 20 19 19 20 20 19 19 19 19 19 19 18 18 18 17 17 18 18 17
35 34 33 32 31 29 29 28 28 27 26 27 30 25 23 25 25 23 24 22 22 20 22 22 22 21 20 20 20 21 20 19 19 19 18 18 18 19
38 36 35 33 33 31 30 30 29 29 29 29 30 30 25 27 27 27 25 26 24 24 22 23 24 24 23 22 22 22 21 21 21 20 20 19 19 19
39 39 39 35 34 32 32 32 31 31 31 31 29 33 29 28 29 28 27 28 27 28 24 24 26 26 25 24 24 22 23 23 22 21 21 21 20 21
41 41 42 38 36 35 34 34 34 33 32 32 30 31 34 29 29 28 31 30 28 28 29 27 27 28 26 27 25 24 24 25 24 23 23 22 22 22
45 43 43 42 39 37 36 36 36 35 34 33 32 31 33 33 30 29 31 32 31 30 29 31 32 29 28 27 27 27 27 26 26 25 25 24 24 23
47 43 45 46 42 40 39 38 38 37 36 34 35 33 34 34 33 33 32 33 32 33 34 29 31 33 32 31 28 27 28 28 28 28 27 26 26 25
51 46 48 47 48 43 41 40 39 39 38 36 35 34 35 35 37 34 34 35 35 33 36 34 30 32 33 32 32 31 29 31 29 30 30 29 28 28
54 51 51 50 50 44 44 43 42 40 40 38 38 38 36 36 37 38 37 38 37 35 37 37 32 33 36 33 33 35 32 33 33 32 32 32 31 31
56 57 53 52 49 48 48 46 43 41 42 40 39 39 37 38 39 39 40 40 38 40 36 40 36 36 38 34 33 35 35 35 35 34 34 33 33 35
58 60 57 50 49 50 50 47 43 42 44 44 41 41 41 41 41 41 41 43 40 41 40 42 39 38 40 37 34 35 36 37 36 36 35 34 35 37
59 58 56 49 49 50 51 46 45 45 47 47 45 43 42 43 43 42 42 44 44 43 45 47 45 40 41 40 39 36 35 38 40 39 37 36 36 38
59 57 55 50 48 49 52 48 48 49 50 51 47 46 45 45 47 48 47 46 46 46 48 50 49 47 45 43 43 40 40 40 40 39 40 39 39 40
59 59 54 54 52 49 51 52 52 52 53 53 50 50 50 50 51 51 52 51 53 49 49 51 51 52 51 49 48 47 44 45 43 43 45 45 43 43
56 58 55 56 54 51 52 52 52 53 54 53 54 54 53 54 54 55 57 57 58 54 54 52 50 52 54 56 54 52 50 48 45 47 50 52 51 47
59 59 58 52 53 48 50 52 51 51 52 52 54 55 55 56 57 60 63 63 66 66 68 63 51 51 55 56 56 55 53 52 51 51 53 54 53 51
61 54 52 49 52 47 47 49 50 51 52 53 55 55 62 67 68 65 70 67 70 77 75 66 59 51 52 57 56 55 55 55 53 53 51 53 54 58
53 60 55 54 54 47 51 56 57 56 56 57 58 61 64 66 70 78 69 65 62 58 55 54 60 54 54 54 55 57 60 62 62 60 59 60 60 57
34 42 46 50 52 47 59 58 55 56 60 57 61 65 65 56 58 56 54 53 51 47 44 44 44 47 49 48 52 52 51 52 53 55 55 53 51 49
23 27 33 45 54 47 37 41 44 45 45 51 53 48 49 46 44 41 39 38 37 37 38 38 41 44 43 44 47 48 46 44 42 42 40 39 39 40
3 4 6 10 15 18 18 19 21 24 24 23 23 25 26 27 25 25 27 28 30 32 33 34 35 34 32 33 34 34 34 32 31 30 29 29 29 29